Weather History for Kalispell, MT

Change the Weather History Date:

Wednesday, February 20, 2013

  Actual Average Record
Temperature  
Mean Temperature 30 °F 28 °F  
Max Temperature 36 °F 37 °F 57 °F (1995)
Min Temperature 23 °F 18 °F -18 °F (1918)
Degree Days  
Heating Degree Days 36 37  
Month to date heating degree days 618 770  
Since 1 July heating degree days 4991 5561  
Cooling Degree Days 0 0  
Month to date cooling degree days 0 0  
Year to date cooling degree days 0 0  
Moisture  
Dew Point 27 °F    
Average Humidity 78    
Maximum Humidity 92    
Minimum Humidity 64    
Precipitation  
Precipitation 0.02 in 0.03 in 0.70 in (1921)
Month to date precipitation 0.13 0.68  
Year to date precipitation 1.00 2.01  
Snow  
Snow 0.60 in - - ()
Month to date snowfall 1.1  
Year to date snowfall 7.1  
Since 1 July snowfall 15.9  
Snow Depth T in    
Sea Level Pressure  
Sea Level Pressure 29.86 in    
Wind  
Wind Speed 6 mph (SE)    
Max Wind Speed 14 mph    
Max Gust Speed -    
Visibility 6 miles    
Events Snow    
T = Trace of Precipitation, MM = Missing Value Source: NWS Daily Summary

Daily Weather History Graph

Daily Weather History Graph

Search for Another Location

Airport:

Trip Planner

Search our weather history database for the weather conditions in past years. The results will help you decide how hot, cold, wet, or windy it might be!

Date:

Astronomy

Feb. 20, 2013 Rise Set
Actual Time 7:34 AM MST 6:07 PM MST
Civil Twilight 7:02 AM MST 6:39 PM MST
Nautical Twilight 6:26 AM MST 7:15 PM MST
Astronomical Twilight 5:50 AM MST 7:51 PM MST
Moon 1:18 PM MST 4:12 AM MST
Length of Visible Light 11h 36m
Length of Day
10h 32m
Waxing Gibbous, 76% of the Moon is Illuminated
Feb 20
Waxing Gibbous
Feb 25
Full
Mar 4
Last Quarter
Mar 11
New
Mar 19
First Quarter

Hourly Weather History & Observations

Time (MST) Temp. Windchill Dew Point Humidity Pressure Visibility Wind Dir Wind Speed Gust Speed Precip Events Conditions
12:55 AM 30.0 °F - 28.0 °F 92% 29.83 in 10.0 mi Calm Calm - N/A   Overcast
1:55 AM 28.9 °F - 28.0 °F 96% 29.84 in 7.0 mi Calm Calm - 0.00 in Snow Light Snow
2:55 AM 30.0 °F - 28.0 °F 92% 29.85 in 6.0 mi Calm Calm - 0.01 in   Overcast
3:28 AM 28.4 °F - 28.4 °F 100% 29.78 in 6.0 mi Calm Calm - 0.00 in Snow Light Snow
3:48 AM 28.4 °F - 28.4 °F 100% 29.79 in 5.0 mi Calm Calm - 0.00 in Snow Light Snow
3:55 AM 28.9 °F - 28.0 °F 96% 29.86 in 3.0 mi Calm Calm - 0.00 in Snow Light Snow
4:05 AM 28.4 °F - 28.4 °F 100% 29.79 in 2.0 mi Calm Calm - 0.00 in Snow Light Snow
4:21 AM 28.4 °F - 28.4 °F 100% 29.79 in 4.0 mi Calm Calm - 0.00 in Snow Light Snow
4:55 AM 28.9 °F - 28.0 °F 96% 29.87 in 5.0 mi Calm Calm - 0.00 in   Overcast
5:07 AM 28.4 °F - 28.4 °F 100% 29.80 in 2.5 mi Calm Calm - 0.00 in Snow Light Snow
5:18 AM 28.4 °F - 28.4 °F 100% 29.80 in 2.5 mi Calm Calm - 0.00 in Snow Light Snow
5:37 AM 28.4 °F - 28.4 °F 100% 29.80 in 3.0 mi Calm Calm - 0.00 in Snow Light Snow
5:45 AM 28.4 °F - 28.4 °F 100% 29.80 in 4.0 mi Calm Calm - 0.00 in Snow Light Snow
5:55 AM 28.9 °F - 28.0 °F 96% 29.88 in 4.0 mi Calm Calm - 0.00 in Snow Light Snow
6:28 AM 28.4 °F - 28.4 °F 100% 29.81 in 7.0 mi Calm Calm - 0.00 in Snow Light Snow
6:51 AM 28.4 °F - 26.6 °F 93% 29.81 in 8.0 mi Calm Calm - 0.00 in   Overcast
6:55 AM 28.9 °F - 27.0 °F 92% 29.90 in 9.0 mi Calm Calm - 0.00 in   Overcast
7:19 AM 28.4 °F - 28.4 °F 100% 29.82 in 3.0 mi Calm Calm - 0.00 in Snow Light Snow
7:26 AM 28.4 °F - 28.4 °F 100% 29.82 in 2.0 mi Calm Calm - 0.00 in Snow Light Snow
7:34 AM 28.4 °F - 28.4 °F 100% 29.82 in 1.8 mi Calm Calm - 0.01 in Snow Light Snow
7:38 AM 28.4 °F - 28.4 °F 100% 29.82 in 2.0 mi Calm Calm - 0.01 in Snow Light Snow
7:47 AM 28.4 °F - 28.4 °F 100% 29.82 in 1.8 mi Calm Calm - 0.01 in Snow Light Snow
7:55 AM 28.4 °F - 28.4 °F 100% 29.82 in 2.0 mi Calm Calm - N/A Snow Light Snow
8:55 AM 30.0 °F - 28.9 °F 96% 29.92 in 4.0 mi Calm Calm - 0.00 in Snow Light Snow
9:26 AM 30.2 °F - 28.4 °F 93% 29.84 in 3.0 mi Calm Calm - 0.00 in Snow Light Snow
9:55 AM 30.9 °F 25.2 °F 28.9 °F 92% 29.92 in 5.0 mi SSE 5.8 mph - 0.00 in Snow Light Snow
10:55 AM 34.0 °F 26.6 °F 32.0 °F 92% 29.91 in 10.0 mi SE 9.2 mph - 0.00 in   Overcast
11:55 AM 35.1 °F 26.4 °F 28.9 °F 78% 29.91 in 10.0 mi South 12.7 mph - N/A   Overcast
12:55 PM 36.0 °F 27.5 °F 27.0 °F 70% 29.90 in 10.0 mi SSE 12.7 mph - N/A   Overcast
1:55 PM 36.0 °F 27.1 °F 28.0 °F 73% 29.89 in 10.0 mi SSE 13.8 mph - N/A   Overcast
2:55 PM 35.1 °F 25.9 °F 28.0 °F 76% 29.88 in 10.0 mi SSE 13.8 mph - N/A   Overcast
3:55 PM 36.0 °F 27.5 °F 26.1 °F 67% 29.87 in 10.0 mi SSE 12.7 mph - N/A   Mostly Cloudy
4:55 PM 36.0 °F 31.1 °F 25.0 °F 64% 29.89 in 10.0 mi South 5.8 mph - N/A   Overcast
5:37 PM 32.0 °F 25.6 °F 26.6 °F 80% 29.82 in 2.0 mi NNW 6.9 mph - 0.00 in Snow Light Snow
5:46 PM 32.0 °F 26.4 °F 26.6 °F 80% 29.82 in 9.0 mi North 5.8 mph - 0.00 in   Overcast
5:55 PM 32.0 °F 28.7 °F 27.0 °F 82% 29.91 in 10.0 mi NNE 3.5 mph - 0.00 in   Overcast
6:55 PM 32.0 °F - 26.1 °F 79% 29.92 in 10.0 mi Calm Calm - N/A   Overcast
7:55 PM 30.9 °F 27.5 °F 25.0 °F 79% 29.94 in 10.0 mi SSW 3.5 mph - N/A   Overcast
8:55 PM 27.0 °F - 25.0 °F 92% 29.95 in 10.0 mi Calm Calm - N/A   Mostly Cloudy
9:55 PM 23.0 °F 17.0 °F 21.2 °F 93% 29.88 in 10.0 mi NE 4.6 mph - N/A   Partly Cloudy
10:55 PM 24.1 °F - 21.0 °F 88% 29.98 in 10.0 mi Calm Calm - N/A   Mostly Cloudy
11:55 PM 25.0 °F - 23.0 °F 92% 29.98 in 9.0 mi Calm Calm - N/A   Overcast